STARLINK-31702, 59585

Orbit data source: Space-Track

STARLINK-31702, 59585 is a payload satellite owned by SpaceX/Seattle (US) in LEO that was launched on Tue, 23 Apr 2024 UTC via an FALCON 9 launch vehicle from the Air Force Eastern Test Range (AFETR). Payload-class satellites include a variety of spacecraft equipped with specific instruments for various scientific and technological missions. These include communications satellites like Starlink; space stations such as the ISS; scientific satellites like the Hubble; Earth observation satellites from companies like Planet Labs, Umbra, and HawkEye 360; GPS; miniature CubeSats for education and research; and military/defense satellites.

Loading next visibility...
Identifier
59585, 2024-076X
Orbit
LEO
Country
Flag of USUS
Related business
Manufacturer
SpaceX/Seattle
Mission
Operational Commercial Communications
Bus & Motor
STARLINK V2M, Unknown motor
Mass
730 kg wet, ~700 kg dry
Launch date (UTC)
2024-04-23 (1 year ago)
Launch vehicle
FALCON 9
Launch site
Air Force Eastern Test Range (AFETR)
Object type
Payload
Rocket body
Debris
Shape & HBR
Box + 2 Pan, 17.7 m
Radar Cross Section
33.884 m², Large (>1 m²)

Expand to show TLE details & history
Last TLE update: 14 hours ago

TLE from 14 hours ago
0 STARLINK-31702
1 59585U 24076X   25288.89040955 -.00003441  00000-0 -11551-3 0  9996
2 59585  43.0038 107.0787 0001438 271.5211  88.5476 15.27599746 84350
Epoch: 2025-10-15T21:22Z
TLE epoch observation values (Epoch: 2025-10-15T21:22:11.385Z)
Latitude
-0°
Longitude
121.87327°
Altitude
482.741 km
Speed
7.626 km/s
True Right ascension
07h 08m 18s
True Declination
0° 00' 00"
Sunlit
Object was in daylight at epoch
Visualization orbit readout
Latitude
Unknown
Longitude
Unknown
Altitude
Unknown
Speed
Unknown
Apparent Right ascension
Unknown
Apparent Declination
Unknown
Sunlit
N/A
Visualization observer readout
Local Sidereal Time
05:59:17
Azimuth
Unknown
Elevation
Unknown
Doppler factor
Unknown
Orbital elements
Apogee altitude
485.921 km
Perigee altitude
483.948 km
Semi-major axis
6,863.072 km
Eccentricity
0.00014
Inclination
43.0038°
RAAN
107.0787°
Arg. of periapsis
271.5211°
True anomaly
88.56407°
Mean anomaly
88.5476°
Eccentric anomaly
88.55584°
Mean motion
3.81738 °/min
Orbital period
94.31 mins
BSTAR
-0.00011551
Loading maneuver chart data...
Computing Atmospheric mass density...
Loading historical data...
Loading historical data...
Loading historical data...
Loading historical data...
Loading historical data...
Loading historical data...
Loading historical data...

Documentation

Showing up to 5 results
|